Location: Rayville (historical)
(39.9992°N, 99.6815°W)
Time: 04:24:46
(UTC+00:00)

SL-4 R/B - Pass Details

Date: 18 February 2020
Orbit: 428 x 667 km, 51.6° (Epoch: 09 April)

Event Time Altitude Azimuth Distance (km) Brightness Sun altitude
Rises 02:51:52 0° 304° (WNW) 2,954 6.7 -30.3°
Reaches altitude 10° 02:54:18 10° 299° (WNW) 2,014 5.7 -30.8°
Enters shadow 02:57:06 33° 280° (W) 1,041 3.9 -31.3°
